Погода в Дунгуани

Китай     23°02′39″N   113°45′20″E
темп.,
°C
ветер,
м/с
пор.,
м/с
влажн.,
%
обл.,
%
осадки,
мм/ч
давл.,
гПа
погр.,
м
20 сентября, пн
пн2023:00+28юв25791 0.1 1012287
02:00+28в12835 0.3 101080
05:00+27всв128724 0.1 101080
08:00+28всв227981 0.1 1012387
11:00+32ссз116144 1.0 10121190
14:00+36зсз214648 1.1 10091963
17:00+33ююв335464 0.2 1008819
20:00+31ююз33641 0.2 1009325
21 сентября, вт
вт2123:00+30ю24725 0.0 1010354
02:00+29ююв127851 1.1 1009114
05:00+28в118298 2.4 100955
08:00+28всв117998 3.8 1011144
11:00+33юз01578 0.4 10101039
14:00+35з214542 0.4 10071996
17:00+35юз124666 0.1 10061486
20:00+31ююз34624 0.1 1008390
22 сентября, ср
ср2223:00+30ююз35705 0.0 1009407
02:00+29ю24747 0.2 1009440
05:00+28ююз138256 2.3 1009104
08:00+28в128059 3.3 1011149
11:00+33юв125637 0.9 10111259
14:00+34юз124895 0.9 10091720
17:00+32ююз335784 0.4 1008700
20:00+30ю3669100 0.4 1010365
23 сентября, чт
чт2323:00+29юв246995 0.0 1012326
02:00+28в237585 0.1 1011224
05:00+28всв238089 0.0 1011213
08:00+28всв238021 0.8 1013273
11:00+32в236132 1.5 10141225
14:00+33юв235645 3.2 10111408
17:00+32ююз34584 0.0 1011659
20:00+30юв47595 0.0 1012637
24 сентября, пт
пт2423:00+29юв26734 0.0 1014654
02:00+28в25804 0.0 1013542
05:00+27в238646 1.1 1013129
08:00+28в23820 2.0 1015390
11:00+33в23539 0.0 10151606
14:00+36ю133952 0.0 10122313
17:00+32ююз455499 0.0 1011583
20:00+31юв466217 0.0 1012772